North Pole, Alaska, United States (99705)
Lat: 64.75N, Lon: 147.35W
Wx Zone: AKZ222
Local Info
Past Weather Observations for Tuesday, October 14, 2014

NOTE: This archive is for the closest National Weather Service station to North Pole. Information may differ from the station used for current weather conditions.

Click here for Long-term Archive

Time Weather Temperature Dewpoint Humidity Pressure Winds Precip Visibility
23:56
Clear
21°F / -6°C 14°F / -10°C 74% 29.71 in
(1006 mb)
NE 3.5 mph
(NE 6 kph)
- 10SM
22:56
Overcast
25°F / -4°C 16°F / -9°C 69% 29.71 in
(1006 mb)
E 3.5 mph
(E 6 kph)
- 10SM
21:56
Overcast
25°F / -4°C 16°F / -9°C 69% 29.74 in
(1007 mb)
ENE 5.8 mph
(ENE 9 kph)
- 10SM
20:56
Partly Cloudy
25°F / -4°C 16°F / -9°C 69% 29.74 in
(1007 mb)
NE 4.6 mph
(NE 7 kph)
- 10SM
20:55
Partly Cloudy
25°F / -4°C 16°F / -9°C 69% 29.74 in
(1007 mb)
NE 3.5 mph
(NE 6 kph)
- 7SM
19:55
Partly Cloudy
27°F / -3°C 18°F / -8°C 69% 29.74 in
(1007 mb)
NE 3.5 mph
(NE 6 kph)
- 7SM
18:55
Partly Cloudy
27°F / -3°C 21°F / -6°C 80% 29.74 in
(1007 mb)
ENE 4.6 mph
(ENE 7 kph)
- 25SM
17:55
Partly Cloudy
28°F / -2°C 23°F / -5°C 80% 29.74 in
(1007 mb)
Calm - 25SM
16:55
Partly Cloudy
32°F / 0°C 25°F / -4°C 75% 29.74 in
(1007 mb)
Calm - 25SM
15:55
Mostly Cloudy
34°F / 1°C 25°F / -4°C 70% 29.74 in
(1007 mb)
SW 5.8 mph
(SW 9 kph)
- 25SM
14:55
Partly Cloudy
34°F / 1°C 23°F / -5°C 65% 29.74 in
(1007 mb)
SSE 6.9 mph
(SSE 11 kph)
- 25SM
13:55
Partly Cloudy
36°F / 2°C 23°F / -5°C 60% 29.74 in
(1007 mb)
SSW 2.3 mph
(SSW 4 kph)
- 25SM
12:55
Mostly Cloudy
34°F / 1°C 21°F / -6°C 60% 29.74 in
(1007 mb)
SSW 3.5 mph
(SSW 6 kph)
- 25SM
11:55
Mostly Cloudy
34°F / 1°C 25°F / -4°C 70% 29.74 in
(1007 mb)
WNW 3.5 mph
(WNW 6 kph)
- 25SM
10:55
Mostly Cloudy
34°F / 1°C 25°F / -4°C 70% 29.74 in
(1007 mb)
Calm - 25SM
09:55
Mostly Cloudy
32°F / 0°C 28°F / -2°C 87% 29.74 in
(1007 mb)
Calm - 10SM
08:55
Mostly Cloudy
28°F / -2°C 27°F / -3°C 93% 29.74 in
(1007 mb)
Calm - 7SM
07:55
Overcast
28°F / -2°C 27°F / -3°C 93% 29.74 in
(1007 mb)
Calm - 7SM
06:55
Overcast
28°F / -2°C 27°F / -3°C 93% 29.74 in
(1007 mb)
Calm - 7SM
05:55
Overcast
28°F / -2°C 27°F / -3°C 93% 29.74 in
(1007 mb)
Calm - 7SM
05:20
Overcast
30°F / -1°C 27°F / -3°C 86% 29.74 in
(1007 mb)
Calm - 7SM
03:56
Overcast
28°F / -2°C 27°F / -3°C 93% 29.74 in
(1007 mb)
Calm - 10SM
03:27
Overcast
28°F / -2°C 27°F / -3°C 93% 29.74 in
(1007 mb)
Calm - 10SM
02:56
Overcast
30°F / -1°C 27°F / -3°C 86% 29.74 in
(1007 mb)
Calm - 10SM
02:31
Overcast
30°F / -1°C 27°F / -3°C 86% 29.74 in
(1007 mb)
Calm - 10SM
02:19
Overcast
30°F / -1°C 27°F / -3°C 86% 29.74 in
(1007 mb)
Calm - 8SM
01:56
Overcast
28°F / -2°C 27°F / -3°C 93% 29.74 in
(1007 mb)
Calm 0.00 in
(0.00 mm)
7SM
00:56
Overcast
30°F / -1°C 27°F / -3°C 86% 29.77 in
(1008 mb)
Calm - 10SM
00:21
Overcast
28°F / -2°C 27°F / -3°C 93% 29.74 in
(1007 mb)
ENE 3.5 mph
(ENE 6 kph)
- 10SM
00:06
Overcast
30°F / -1°C 27°F / -3°C 86% 29.74 in
(1007 mb)
E 3.5 mph
(E 6 kph)
- 10SM
Time Weather Temperature Dewpoint Humidity Pressure Winds Precip Visibility


Weather for websites

WeatherForYou.com, LLC is not responsible for any damages or problems caused by this service. Current weather conditions are obtained from the closest station including government and personal stations which may have varying degrees of accuracy. Weather forecasts are derived from the NOAA NDFD. Like all things, this site belongs to Jesus Christ... He just trusts me to maintain it. If you have any questions or comments email webmaster@weatherforyou.com

Copyright © 2014, WeatherForYou.com LLC. All rights reserved.